User: anonymous   Login
Location: Ch?enovice
(49.7164°N, 15.2160°E)
Time: 07:02:19
(UTC+00:00)
Language:

Cosmos 2098 Rocket - Orbit

View from above orbital plane
View from above orbital plane
View from above satellite
View from above satellite

Ground track
Ground track

The orbit data is extracted from the following two-line orbital elements,

1 20775U 90078B   24201.89311049  .00020930  00000-0  82333-3 0  9995
2 20775  82.9134  58.1782 0464784 187.1500 172.2929 14.61745636721102
Epoch (UTC): 19 July 2024 21:26:04
Eccentricity: 0.0464784
inclination: 82.9134°
perigee height: 359 km
apogee height: 1016 km
right ascension of ascending node: 58.1782°
argument of perigee: 187.1500°
revolutions per day: 14.61745636
mean anomaly at epoch: 172.2929°
orbit number at epoch: 72110

The dashed part of the orbit path shows where the satellite is in the earth's shadow,  

DLR